www.pogodaiklimat.ru

Погода и климат >> Архив погоды >> Норвегия >> Sklinna Fyr


ПОГОДА в Sklinna Fyr

  • Прогноз погоды в Sklinna Fyr
  • Монитор погоды в Sklinna Fyr
  • Климат города

АРХИВ ПОГОДЫ в Sklinna Fyr

Время (UTC), дата Ветер
(напр.,м/с)
 
Видим.   Явления Облачность Т
(С)
Тd
(С)
f
(%)
Тe
(С)
Тes
(С)
Комфортность P
(гПа)
Po
(гПа)
Тmin
(С)
Tmax
(С)
R
(мм)
R24
(мм)
S
(см)
04 19.05 СЗ 7
{9}
н/о н/о +7.4 +7.0 97 +3 +3 1011.6 1009.7
05 19.05 С 9
{11}
н/о н/о +7.5 +6.9 96 +2 +2 1012.2 1010.3
06 19.05 С 9
{12}
н/о н/о +7.7 +6.6 93 +2 +2 1013.3 1011.4 +7.3 +8.6
07 19.05 С 8
{10}
н/о н/о +7.7 +6.3 91 +3 +3 1014.5 1012.6
08 19.05 С 8
{11}
н/о н/о +7.8 +6.3 90 +3 +3 1015.4 1013.5
09 19.05 С 7
{9}
н/о н/о +8.1 +6.4 89 +4 +4 1016.4 1014.5
10 19.05 С 8
{9}
н/о н/о +7.9 +6.2 89 +3 +3 1017.2 1015.3
11 19.05 СЗ 7
{10}
н/о н/о +8.1 +5.4 83 +4 +4 1018.1 1016.2
12 19.05 СЗ 6
{11}
н/о н/о +8.4 +5.9 84 +4 +4 1019.0 1017.1
13 19.05 СЗ 7
{8}
н/о н/о +8.5 +5.8 83 +4 +4 1019.4 1017.5
14 19.05 С 5
{8}
н/о н/о +8.6 +5.5 81 +5 +5 1020.0 1018.1
15 19.05 С 6
{7}
н/о н/о +8.4 +4.8 78 +4 +4 1020.2 1018.3
16 19.05 С 6
{7}
н/о н/о +8.0 +5.6 85 +4 +4 1020.5 1018.6
17 19.05 С 6
{7}
н/о н/о +7.7 +6.0 89 +3 +3 1021.0 1019.1
18 19.05
{8}
н/о н/о +7.5 +6.1 91 1021.5 1019.6 +7.4 +9.2
19 19.05
{7}
н/о н/о +7.5 +5.7 88 1021.8 1019.9
20 19.05
{6}
н/о н/о +7.5 +5.7 88 1022.5 1020.6
21 19.05 С 4
{6}
н/о н/о +7.5 +6.1 91 +4 +4 1022.8 1020.9
22 19.05 С 3
{5}
н/о н/о +7.5 +6.1 91 +5 +5 1023.2 1021.3
23 19.05 СВ 2
{5}
н/о н/о +7.6 +2.9 72 +6 +6 1023.5 1021.6
00 20.05 СВ 2
{7}
н/о н/о +7.5 +3.4 75 +6 +6 1023.4 1021.5
01 20.05 СВ 4
{7}
н/о н/о +6.9 +5.1 88 +3 +3 1023.4 1021.5
02 20.05 СВ 3
{5}
н/о н/о +6.8 +5.4 91 +4 +4 1023.6 1021.7
03 20.05 С 3
{7}
н/о н/о +6.8 +5.1 89 +4 +4 1023.6 1021.7
04 20.05 СВ 5
{8}
н/о н/о +7.0 +4.7 85 +3 +3 1023.3 1021.4
05 20.05 СВ 6
{8}
н/о н/о +7.0 +3.1 76 +3 +3 1023.3 1021.4
06 20.05 С 5
{8}
н/о н/о +7.0 +3.1 76 +3 +3 1023.6 1021.7 +6.4 +7.7
07 20.05 СВ 6
{8}
н/о н/о +7.1 +3.5 78 +3 +3 1023.6 1021.7
08 20.05 СВ 5
{8}
н/о н/о +7.2 +2.7 73 +3 +3 1023.9 1022.0
09 20.05 С 6
{8}
н/о н/о +7.5 +3.9 78 +3 +3 1023.7 1021.8
10 20.05 СВ 6
{9}
н/о н/о +7.6 +2.9 72 +4 +4 1023.6 1021.7
11 20.05 СВ 5
{8}
н/о н/о +8.4 +3.7 72 +5 +5 1023.2 1021.3
12 20.05 С 7
{9}
н/о н/о +8.0 +3.5 73 +4 +4 1022.8 1020.9
13 20.05 С 8
{10}
н/о н/о +7.9 +3.8 75 +3 +3 1022.4 1020.5
14 20.05 С 8
{10}
н/о н/о +8.3 +4.3 76 +4 +4 1021.9 1020.0
15 20.05 С 8
{11}
н/о н/о +8.2 +4.4 77 +4 +4 1021.4 1019.5
16 20.05 СВ 9
{12}
н/о н/о +8.3 +4.5 77 +3 +3 1020.7 1018.8
17 20.05 СВ 8
{11}
н/о н/о +8.2 +4.6 78 +4 +4 1020.4 1018.5
18 20.05 С 9
{12}
н/о н/о +8.3 +4.9 79 +3 +3 1020.0 1018.1 +7.0 +8.9
19 20.05 СВ 8
{12}
н/о н/о +8.2 +4.6 78 +4 +4 1019.8 1017.9
20 20.05 СВ 8
{12}
н/о н/о +7.9 +4.7 80 +3 +3 1019.5 1017.6
21 20.05 СВ 8
{12}
н/о н/о +7.4 +5.2 86 +2 +2 1019.3 1017.4
22 20.05 СВ 7
{11}
н/о н/о +7.3 +5.5 88 +3 +3 1018.8 1016.9
23 20.05 С 7
{10}
н/о н/о +7.2 +5.5 89 +2 +2 1018.9 1017.0
00 21.05 СВ 8
{12}
н/о н/о +7.0 +5.3 89 +2 +2 1018.5 1016.6
01 21.05 СВ 7
{9}
н/о н/о +7.1 +5.6 90 +2 +2 1018.4 1016.5
02 21.05 С 6
{9}
н/о н/о +7.0 +5.5 90 +2 +2 1018.2 1016.3
03 21.05 СВ 5
{8}
н/о н/о +7.2 +5.5 89 +3 +3 1018.0 1016.1
04 21.05 С 5
{7}
н/о н/о +7.6 +5.4 86 +4 +4 1018.2 1016.3
05 21.05 СВ 4
{6}
н/о н/о +7.7 +5.5 86 +4 +4 1018.3 1016.4
06 21.05 В 2
{9}
н/о н/о +8.3 +5.8 84 +6 +6 1018.7 1016.8 +7.0 +8.3
07 21.05 З 2
{4}
н/о н/о +8.5 +6.0 84 +7 +7 1018.9 1017.0
08 21.05 Ю 1
{3}
н/о н/о +8.9 +7.0 88 +8 +8 1019.0 1017.1
09 21.05 Ю 4
{7}
н/о н/о +9.3 +7.3 87 +6 +6 1019.1 1017.2
10 21.05 Ю 5
{6}
н/о н/о +9.7 +7.1 84 +6 +6 1019.0 1017.1
11 21.05 ЮЗ 5
{7}
н/о н/о +9.6 +6.3 80 +6 +6 1018.9 1017.0
12 21.05 ЮЗ 5
{7}
н/о н/о +9.3 +6.6 83 +6 +6 1018.7 1016.8
13 21.05 Ю 6
{9}
н/о н/о +9.4 +6.5 82 +6 +6 1018.4 1016.5
14 21.05 Ю 6
{8}
н/о н/о +9.2 +6.3 82 +5 +5 1018.2 1016.3
15 21.05 ЮЗ 5
{8}
н/о н/о +8.8 +5.9 82 +5 +5 1018.1 1016.2
16 21.05 З 5
{7}
н/о н/о +8.3 +5.8 84 +5 +5 1017.9 1016.0
17 21.05 ЮЗ 4
{6}
н/о н/о +8.1 +5.6 84 +5 +5 1017.7 1015.8
18 21.05 З 3
{9}
н/о н/о +8.0 +5.5 84 +5 +5 1017.7 1015.8 +7.9 +10.1
19 21.05 З 3
{6}
н/о н/о +7.8 +4.9 82 +5 +5 1017.5 1015.6
20 21.05 СЗ 5
{6}
н/о н/о +7.7 +5.8 88 +4 +4 1017.4 1015.5
21 21.05 С 7
{8}
н/о н/о +7.1 +5.9 92 +2 +2 1017.3 1015.4
22 21.05 С 6
{8}
н/о н/о +6.9 +5.5 91 +2 +2 1017.4 1015.5
23 21.05 С 6
{7}
н/о н/о +6.7 +5.0 89 +2 +2 1017.5 1015.6
00 22.05 СЗ 6
{8}
н/о н/о +6.7 +3.7 81 +2 +2 1017.3 1015.4
01 22.05 С 5
{7}
н/о н/о +6.6 +3.4 80 +3 +3 1017.1 1015.2
02 22.05 СЗ 5
{6}
н/о н/о +6.5 +3.0 78 +2 +2 1016.9 1015.0
03 22.05 СЗ 4
{6}
н/о н/о +6.5 +3.0 78 +3 +3 1016.8 1014.9
04 22.05 СЗ 3
{6}
н/о н/о +6.6 +2.7 76 +4 +4 1016.7 1014.8
05 22.05 СЗ 4
{5}
н/о н/о +6.6 +2.5 75 +3 +3 1016.8 1014.9
06 22.05 СЗ 4
{7}
н/о н/о +6.6 +2.3 74 +3 +3 1016.9 1015.0 +6.4 +8.0
07 22.05 СЗ 5
{7}
н/о н/о +6.6 +2.1 73 +3 +3 1017.0 1015.1
08 22.05 С 5
{7}
н/о н/о +6.8 +1.7 70 +3 +3 1017.4 1015.5
09 22.05 СЗ 6
{7}
н/о н/о +6.8 +2.5 74 +2 +2 1017.5 1015.6
10 22.05 СЗ 5
{6}
н/о н/о +6.9 +2.0 71 +3 +3 1017.7 1015.8
11 22.05 С 3
{6}
н/о н/о +6.6 +1.9 72 +4 +4 1017.9 1016.0
12 22.05 С 5
{7}
н/о н/о +6.9 +1.8 70 +3 +3 1018.0 1016.1
13 22.05 СЗ 3
{6}
н/о н/о +6.9 +2.2 72 +4 +4 1018.0 1016.1
14 22.05 СЗ 3
{5}
н/о н/о +6.8 +2.3 73 +4 +4 1018.1 1016.2
15 22.05 СЗ 5
{6}
н/о н/о +6.9 +1.8 70 +3 +3 1018.2 1016.3
16 22.05 СЗ 3
{5}
н/о н/о +6.9 +2.2 72 +4 +4 1018.1 1016.2
17 22.05 СЗ 4
{5}
н/о н/о +7.0 +1.5 68 +4 +4 1018.0 1016.1
18 22.05 СЗ 4
{6}
н/о н/о +6.9 +1.8 70 +4 +4 1017.9 1016.0 +6.5 +7.2
19 22.05 СЗ 3
{6}
н/о н/о +6.8 +1.7 70 +4 +4 1017.8 1015.9
20 22.05 С 2
{3}
н/о н/о +6.7 +1.8 71 +5 +5 1017.7 1015.8
21 22.05 З 1
{2}
н/о н/о +6.5 +1.8 72 +6 +6 1017.7 1015.8
22 22.05 З 2
{2}
н/о н/о +6.6 +2.1 73 +5 +5 1017.6 1015.7
23 22.05 СЗ 4
{7}
н/о н/о +7.0 +1.5 68 +4 +4 1017.4 1015.5
00 23.05 СЗ 1
{7}
н/о н/о +6.9 +2.0 71 +6 +6 1017.2 1015.3
01 23.05 С 2
{3}
н/о н/о +6.9 +1.8 70 +5 +5 1017.2 1015.3
02 23.05 СЗ 2
{3}
н/о н/о +6.8 +2.1 72 +5 +5 1017.0 1015.1
03 23.05 СВ 1
{2}
н/о н/о +6.7 +2.0 72 +6 +6 1016.8 1014.9
04 23.05 ЮВ 1
{2}
н/о н/о +6.7 +2.4 74 +6 +6 1016.7 1014.8
05 23.05 ЮВ 2
{3}
н/о н/о +7.1 +2.8 74 +5 +5 1016.4 1014.5
06 23.05 Ю 3
{4}
н/о н/о +7.5 +2.8 72 +5 +5 1016.5 1014.6 +6.5 +7.5
07 23.05 Ю 3
{5}
н/о н/о +7.7 +2.6 70 +5 +5 1016.7 1014.8
08 23.05 Ю 3
{4}
н/о н/о +8.5 +3.2 69 +6 +6 1016.6 1014.7
09 23.05 Ю 3
{5}
н/о н/о +8.7 +2.9 67 +6 +6 1016.5 1014.6
10 23.05 ЮВ 2
{4}
н/о н/о +8.9 +2.9 66 +7 +7 1016.6 1014.7
11 23.05 Ю 1
{4}
н/о н/о +8.8 +3.0 67 +8 +8 1016.5 1014.6
12 23.05 В 2
{5}
н/о н/о +9.3 +3.3 66 +8 +8 1016.3 1014.4
13 23.05 ЮВ 2
{3}
н/о н/о +9.3 +3.5 67 +8 +8 1016.2 1014.3
14 23.05 Ю 1
{3}
н/о н/о +9.9 +3.7 65 +10 +10 1015.9 1014.0
15 23.05 СЗ 2
{2}
н/о н/о +8.6 +3.9 72 +7 +7 1015.7 1013.8
16 23.05 С 3
{3}
н/о н/о +8.0 +5.1 82 +5 +5 1015.3 1013.4
17 23.05 С 2
{4}
н/о н/о +7.6 +4.9 83 +6 +6 1015.1 1013.2
18 23.05 СВ 2
{4}
н/о н/о +7.9 +4.9 81 +6 +6 1014.8 1012.9 +7.5 +10.1
19 23.05 СВ 2
{3}
н/о н/о +7.9 +4.9 81 +6 +6 1014.4 1012.5
20 23.05 СВ 3
{4}
н/о н/о +7.5 +4.3 80 +5 +5 1014.1 1012.2
21 23.05 СВ 3
{3}
н/о н/о +6.5 +4.7 88 +3 +3 1014.1 1012.2
22 23.05 СВ 2
{3}
н/о н/о +6.7 +4.7 87 +4 +4 1014.1 1012.2
23 23.05 СВ 3
{3}
н/о н/о +6.8 +5.0 88 +4 +4 1013.9 1012.0
00 24.05 СВ 3
{4}
н/о н/о +6.8 +5.3 90 +4 +4 1013.7 1011.8
01 24.05 СВ 3
{4}
н/о н/о +7.1 +4.9 86 +4 +4 1013.6 1011.7
02 24.05 В 3
{4}
н/о н/о +7.1 +5.3 88 +4 +4 1013.5 1011.6
03 24.05 СВ 2
{3}
н/о н/о +7.1 +5.3 88 +5 +5 1013.3 1011.4
04 24.05 СВ 2
{2}
н/о н/о +7.6 +5.4 86 +6 +6 1013.3 1011.4
05 24.05 В 2
{2}
н/о н/о +8.2 +5.3 82 +6 +6 1013.4 1011.5
06 24.05 В 2
{4}
н/о н/о +8.8 +5.4 79 +7 +7 1013.4 1011.5 +6.3 +9.0
07 24.05 ЮВ 1
{2}
н/о н/о +9.4 +5.4 76 +9 +9 1013.7 1011.8
08 24.05 ЮВ 2
{2}
н/о н/о +9.7 +4.5 70 +8 +8 1014.0 1012.1
09 24.05 Ю 2
{3}
н/о н/о +9.7 +4.5 70 +8 +8 1014.3 1012.4
10 24.05 Ю 2
{3}
н/о н/о +9.3 +4.3 71 +8 +8 1014.5 1012.6
11 24.05 Ю 2
{3}
н/о н/о +9.8 +5.2 73 +8 +8 1014.4 1012.5
12 24.05 ЮЗ 4
{5}
н/о н/о +8.9 +5.8 81 +6 +6 1014.6 1012.7
13 24.05 ЮЗ 5
{7}
н/о н/о +8.0 +5.5 84 +4 +4 1014.8 1012.9
14 24.05 ЮЗ 4
{7}
н/о н/о +7.5 +5.5 87 +4 +4 1014.8 1012.9
15 24.05 З 3
{5}
н/о н/о +7.5 +5.7 88 +5 +5 1014.6 1012.7
16 24.05 З 2
{3}
н/о н/о +7.5 +5.8 89 +5 +5 1014.5 1012.6
17 24.05 ЮЗ 2
{3}
н/о н/о +7.3 +5.9 91 +5 +5 1014.3 1012.4
18 24.05 З 2
{7}
н/о н/о +7.3 +6.3 93 +5 +5 1014.3 1012.4 +7.2 +10.2
19 24.05 ЮЗ 3
{4}
н/о н/о +7.3 +6.3 93 +4 +4 1014.3 1012.4
20 24.05 З 3
{4}
н/о н/о +7.5 +5.3 86 +5 +5 1014.2 1012.3
21 24.05 З 3
{3}
н/о н/о +7.5 +5.3 86 +5 +5 1014.0 1012.1
22 24.05 ЮЗ 4
{4}
н/о н/о +7.5 +5.7 88 +4 +4 1013.7 1011.8
23 24.05 Ю 3
{5}
н/о н/о +7.5 +6.3 92 +5 +5 1013.3 1011.4
00 25.05 Ю 5
{5}
н/о н/о +7.5 +6.9 96 +3 +3 1012.9 1011.0
01 25.05 З 7
{8}
н/о н/о +8.2 +7.8 97 +4 +4 1012.5 1010.6
02 25.05 ЮЗ 9
{10}
н/о н/о +8.3 +7.7 96 +3 +3 1012.2 1010.3
03 25.05 ЮЗ 8
{10}
н/о н/о +8.2 +7.6 96 +3 +3 1011.7 1009.8
04 25.05 ЮЗ 8
{10}
н/о н/о +8.3 +7.7 96 +3 +3 1011.3 1009.4
05 25.05 З 6
{9}
н/о н/о +8.4 +7.7 95 +4 +4 1011.2 1009.3
06 25.05 З 7
{10}
н/о н/о +8.5 +7.9 96 +4 +4 1011.5 1009.6 +7.2
07 25.05 З 6
{9}
н/о н/о +8.5 +7.9 96 +4 +4 1011.5 1009.6
08 25.05 З 7
{8}
н/о н/о +8.8 +8.1 95 +4 +4 1012.0 1010.1
09 25.05 З 6
{9}
н/о н/о +9.0 +7.8 92 +5 +5 1012.4 1010.5
10 25.05 З 6
{7}
н/о н/о +9.0 +7.6 91 +5 +5 1012.9 1011.0
11 25.05 З 7
{8}
н/о н/о +8.8 +7.6 92 +4 +4 1013.1 1011.2
12 25.05 З 5
{9}
н/о н/о +8.8 +7.6 92 +5 +5 1013.5 1011.6
13 25.05 З 6
{8}
н/о н/о +9.0 +7.1 88 +5 +5 1013.7 1011.8
14 25.05 З 6
{7}
н/о н/о +9.0 +7.6 91 +5 +5 1014.2 1012.3
15 25.05 З 5
{8}
н/о н/о +8.8 +7.4 91 +5 +5 1014.6 1012.7
16 25.05 З 5
{7}
н/о н/о +8.9 +7.8 93 +5 +5 1014.9 1013.0
17 25.05 З 6
{7}
н/о н/о +8.9 +7.7 92 +5 +5 1015.1 1013.2
18 25.05 З 6
{8}
н/о н/о +8.7 +7.6 93 +5 +5 1015.4 1013.5 +8.4 +9.7
19 25.05 С 7
{9}
н/о н/о +7.0 +6.4 96 +2 +2 1016.1 1014.2
20 25.05 С 6
{9}
н/о н/о +6.4 +5.5 94 +2 +2 1016.7 1014.8
21 25.05 С 6
{7}
н/о н/о +7.2 +4.5 83 +3 +3 1017.2 1015.3
22 25.05 С 6
{7}
н/о н/о +7.2 +3.5 77 +3 +3 1017.8 1015.9
23 25.05 С 5
{7}
н/о н/о +7.2 +2.9 74 +3 +3 1018.4 1016.5
00 26.05 С 5
{9}
н/о н/о +7.2 +3.1 75 +3 +3 1018.6 1016.7
01 26.05 С 5
{6}
н/о н/о +7.0 +1.5 68 +3 +3 1019.0 1017.1
02 26.05
{6}
н/о н/о +7.0 +2.3 72 1019.1 1017.2
03 26.05 С 4
{5}
н/о н/о +7.0 +0.9 65 +4 +4 1019.4 1017.5
04 26.05 С 3
{5}
н/о н/о +7.1 +1.4 67 +4 +4 1019.5 1017.6

 

Местоположение метеостанции Sklinna Fyr (Норвегия): широта 65.20 долгота 11.00 высота над уровнем моря 23 м.

В архиве по умолчанию представлена погода в Sklinna Fyr за последнюю неделю. Архивные данные за месяц целиком и за предыдущие месяцы, начиная с января 2011 года, Вы можете получить, выбрав интересующий диапазон дат из раскрывающегося списка и нажав кнопку "Ввод!".

Внимание! Время в таблицах - всемирное. Для получения местного времени необходимо прибавить поправку, которая в Sklinna Fyr равна 1 ч.

Смотрите также архив погоды в соседних городах и на ближайших метеорологических станциях:

Погода в Rorvik Lufthavn (Норвегия) (42 км)
Погода в S?mna-Kval?yfjellet (Норвегия) (46 км)
Погода в Nordoyan Fyr (Норвегия) (49 км)
Погода в Bronnoysund Lufthavn (Норвегия) (64 км)
Погода в Vega-Vallsjo (Норвегия) (68 км)
Погода в Namsos Lufthavn (Норвегия) (86 км)
Погода в Buholmrasa Fyr (Норвегия) (93 км)
Погода в Tjotta (Норвегия) (96 км)
Погода в Gartland (Норвегия) (99 км)
Погода в Namsskogan (Норвегия) (101 км)

Пояснения к столбцам:

Ветер - указаны скорость ветра в м/с - средняя за 10 мин, порывы в срок и между сроками (в фигурных скобках) и направление, откуда дует ветер: С - северный, СВ - северо-восточный, В - восточный, ЮВ - юго-восточный, Ю - южный, ЮЗ - юго-западный, З - западный, СЗ - северо-западный.
Видимость - горизонтальная дальность видимости в метрах или километрах. При видимости от 1 до 10 км при отсутствии осадков обычно наблюдается дымка, при ухудшении видимости до 1 км и менее - туман. В сухую погоду видимость может ухудшаться дымом, пылью или мглою.
Явления - указаны атмосферные явления, наблюдавшиеся в срок или в последний час перед сроком; фигурными скобками обозначены явления, наблюдавшиеся между сроками (за 1-3 часа до срока); квадратными скобками обозначены град или гололедные отложения с указанием их диаметра в мм.
Облачность - указаны через наклонную черту общая и нижняя облачность в баллах и высота нижней границы облаков в метрах; квадратными скобками обозначены формы облаков: Ci - перистые, Cs - перисто-слоистые, Cc - перисто-кучевые, Ac - высококучевые, As - высокослоистые, Sc - слоисто-кучевые, Ns - слоисто-дождевые, Cu - кучевые, Cb - кучево-дождевые. Подробнее классификацию облаков см. в Атласе облаков (PDF).
T - Температура воздуха - температура, измеренная на высоте 2 м над землей.
Td - Температура точки росы - температура, при понижении до которой содержащийся в воздухе водяной пар достигнет насыщения.
f - Относительная влажность воздуха - влажноcть воздуха, измеренная на высоте 2 м над землей.
Te - Эффективная температура - температура, которую ощущает одетый по сезону человек в тени. Характеристика душности погоды. При расчете учитывается влияние влажности воздуха и скорости ветра на теплоощущения человека.
Tes - Эффективная температура на солнце - температура, которую ощущает человек, с поправкой на солнечный нагрев. Характеристика знойности погоды. Зависит от высоты солнца над горизонтом, облачности и скорости ветра. Ночью, в пасмурную погоду, а также при ветре 12 м/с и более поправка равна нулю.
P - Атмосферное давление - приведенное к уровню моря атмосферное давление.
Po - Атмосферное давление - измеренное на уровне метеостанции атмосферное давление.
Tmin - Минимальная температура - минимум температуры воздуха на высоте 2 м над землей.
Tmax - Максимальная температура - максимум температуры воздуха на высоте 2 м над землей.
R - Количество осадков - Количество выпавших осадков за период времени, мм. При наведении курсора мыши на число - период времени, за который выпало указанное количество осадков.
R24 - Количество осадков - Количество выпавших осадков за 24 часа, мм.
S - Снежный покров - Высота снежного покрова, см. При наведении курсора мыши на число - состояние снежного покрова и степень покрытия местности в баллах.